Location: Newark
(16.3678°N, 77.8722°E)
Time: 03:49:17
(UTC+00:00)

S-56A Canister/Altair - Pass Details

Date: 11 December 2019
Orbit: 634 x 2498 km, 38.9° (Epoch: 17 January)

Event Time Altitude Azimuth Distance (km) Brightness Sun altitude
Rises 07:35:04 0° 297° (WNW) 6,105 12.1 48.5°
Reaches altitude 10° 07:40:08 10° 309° (NW) 5,156 11.7 48.1°
Maximum altitude 07:52:09 27° 2° (N) 3,747 10.9 47.0°
Drops below altitude 10° 08:02:41 10° 56° (NE) 4,515 11.2 45.9°
Sets 08:06:44 0° 68° (ENE) 5,249 11.5 45.5°
